Zurück zum Katalog

BREEZE-M R/B

AktivMEO
NORAD 37870·ROCKET BODY·🇷🇺 Russia

Gestartet Nov 4, 2011 von Baikonur Cosmodrome

Loading…

Nächste Überflüge (nächste 24 Stunden)

TLE

AlterndSource: Space-Track

Epoche: Aug 29, 2026, 21:58 UTC

1 37870U 11064D   26241.91528713 -.00000003  00000-0  00000+0 0  9991
2 37870  65.7666  45.4329 0261619 292.5071  56.0277  2.25566878122024

Verfolge BREEZE-M R/B in Echtzeit mit AllMySat

Download on the App Store